Hyannis, MA

4:42 PM EDT on May 29, 2017 (GMT -0400)
Barnstable Municipal-Boardman-Polando Field

Weather History for KHYA - January, 2015

Change the Weather History Date:

Thursday, January 22, 2015

  Actual Average Record
Temperature  
Mean Temperature 32 °F -  
Max Temperature 39 °F 34 °F 55 °F (1958)
Min Temperature 24 °F 18 °F -6 °F (1970)
Degree Days  
Heating Degree Days 34    
Moisture  
Dew Point 29 °F    
Average Humidity 85    
Maximum Humidity 100    
Minimum Humidity 69    
Precipitation  
Precipitation 0.02 in - - ()
Sea Level Pressure  
Sea Level Pressure 30.15 in    
Wind  
Wind Speed 4 mph (North)    
Max Wind Speed 15 mph    
Max Gust Speed 22 mph    
Visibility 8 miles    
Events Snow    
Averages and records for this station are not official NWS values.
T = Trace of Precipitation, MM = Missing Value Source: NWS Daily Summary

Daily Weather History Graph

Daily Weather History Graph

Search for Another Location

Airport or City:

Trip Planner

Search our weather history database for the weather conditions in past years. The results will help you decide how hot, cold, wet, or windy it might be!

Date:

Astronomy

Jan. 22, 2015 Rise Set
Actual Time 7:01 AM EST 4:43 PM EST
Civil Twilight 6:31 AM EST 5:14 PM EST
Nautical Twilight 5:57 AM EST 5:47 PM EST
Astronomical Twilight 5:24 AM EST 6:20 PM EST
Moon 8:09 AM EST (1/22) 7:42 PM EST (1/22)
Length of Visible Light 10h 42m
Length of Day
9h 41m
Waxing Crescent, 7% of the Moon is Illuminated
Jan 22
Waxing Crescent
Jan 26
First Quarter
Feb 3
Full
Feb 11
Last Quarter
Feb 18
New

Hourly Weather History & Observations

Time (EST) Temp. Windchill Dew Point Humidity Pressure Visibility Wind Dir Wind Speed Gust Speed Precip Events Conditions
12:35 AM 33.1 °F - 28.0 °F 82% 30.12 in 10.0 mi Calm Calm - N/A   Overcast
12:56 AM 33.1 °F - 28.0 °F 82% 30.13 in 10.0 mi Calm Calm - N/A   Overcast
1:56 AM 33.1 °F 30.0 °F 28.9 °F 85% 30.13 in 2.5 mi NE 3.5 mph - 0.00 in Snow Light Snow
2:05 AM 32.0 °F 28.7 °F 28.9 °F 88% 30.12 in 1.8 mi NNE 3.5 mph - 0.00 in Snow Light Snow
2:39 AM 32.0 °F 28.7 °F 30.9 °F 96% 30.12 in 3.0 mi North 3.5 mph - 0.01 in Snow Light Snow
2:56 AM 32.0 °F 28.7 °F 30.9 °F 96% 30.12 in 4.0 mi NNE 3.5 mph - 0.01 in Snow Light Snow
3:56 AM 32.0 °F 27.5 °F 30.9 °F 96% 30.11 in 5.0 mi North 4.6 mph - 0.00 in Snow Light Snow
3:58 AM 32.0 °F 27.5 °F 30.9 °F 96% 30.10 in 5.0 mi North 4.6 mph - 0.00 in Snow Light Snow
4:51 AM 33.8 °F 27.7 °F 30.2 °F 87% 30.09 in 3.0 mi North 6.9 mph - 0.01 in Snow Light Snow
4:56 AM 33.1 °F 27.7 °F 30.9 °F 92% 30.10 in 4.0 mi NNE 5.8 mph - 0.01 in Snow Light Snow
5:09 AM 33.1 °F 27.7 °F 30.9 °F 92% 30.10 in 4.0 mi NNE 5.8 mph - 0.00 in Snow Light Snow
5:56 AM 32.0 °F 27.5 °F 30.9 °F 96% 30.10 in 10.0 mi North 4.6 mph - 0.00 in   Overcast
6:06 AM 30.9 °F 27.5 °F 30.0 °F 96% 30.10 in 10.0 mi North 3.5 mph - N/A   Overcast
6:56 AM 30.9 °F 27.5 °F 30.0 °F 96% 30.12 in 10.0 mi North 3.5 mph - N/A   Overcast
7:56 AM 30.0 °F 26.5 °F 30.0 °F 100% 30.14 in 10.0 mi WNW 3.5 mph - N/A   Overcast
8:56 AM 34.0 °F 29.8 °F 30.9 °F 89% 30.15 in 10.0 mi North 4.6 mph - N/A   Overcast
9:56 AM 37.0 °F 31.6 °F 30.0 °F 76% 30.16 in 10.0 mi North 6.9 mph - N/A   Overcast
10:27 AM 35.1 °F 27.9 °F 30.9 °F 85% 30.16 in 10.0 mi NW 9.2 mph - N/A   Overcast
10:56 AM 37.0 °F 31.6 °F 30.9 °F 79% 30.16 in 10.0 mi North 6.9 mph - N/A   Overcast
11:03 AM 37.9 °F 31.5 °F 30.9 °F 76% 30.15 in 10.0 mi North 9.2 mph - N/A   Overcast
11:10 AM 39.0 °F 32.3 °F 32.0 °F 76% 30.14 in 10.0 mi North 10.4 mph - N/A   Overcast
11:56 AM 37.9 °F 30.0 °F 32.0 °F 79% 30.14 in 10.0 mi NNW 12.7 mph 19.6 mph N/A   Overcast
12:03 PM 37.9 °F 29.6 °F 30.9 °F 76% 30.13 in 10.0 mi North 13.8 mph 21.9 mph N/A   Scattered Clouds
12:56 PM 39.0 °F 30.6 °F 30.9 °F 73% 30.14 in 10.0 mi NNW 15.0 mph 18.4 mph N/A   Scattered Clouds
1:56 PM 37.9 °F 30.5 °F 30.9 °F 76% 30.14 in 10.0 mi NNW 11.5 mph - N/A   Overcast
2:56 PM 37.9 °F 30.5 °F 28.9 °F 70% 30.15 in 10.0 mi North 11.5 mph - N/A   Partly Cloudy
3:20 PM 37.0 °F 30.4 °F 28.9 °F 73% 30.14 in 10.0 mi North 9.2 mph - N/A   Mostly Cloudy
3:56 PM 36.0 °F 29.0 °F 28.9 °F 76% 30.16 in 10.0 mi NNW 9.2 mph - N/A   Partly Cloudy
4:56 PM 34.0 °F 29.8 °F 27.0 °F 75% 30.18 in 10.0 mi NW 4.6 mph - N/A   Clear
5:56 PM 32.0 °F 28.7 °F 27.0 °F 82% 30.20 in 10.0 mi NW 3.5 mph - N/A   Mostly Cloudy
6:56 PM 27.0 °F - 24.1 °F 89% 30.21 in 10.0 mi Calm Calm - N/A   Clear
7:56 PM 25.0 °F - 23.0 °F 92% 30.22 in 10.0 mi Calm Calm - N/A   Clear
8:56 PM 25.0 °F 20.7 °F 21.9 °F 88% 30.21 in 10.0 mi WSW 3.5 mph - N/A   Clear
9:56 PM 24.1 °F - 21.0 °F 88% 30.20 in 10.0 mi Calm Calm - N/A   Clear
10:56 PM 28.9 °F 23.9 °F 24.1 °F 82% 30.20 in 10.0 mi WNW 4.6 mph - N/A   Clear
11:56 PM 30.9 °F 24.3 °F 21.9 °F 69% 30.19 in 10.0 mi WNW 6.9 mph - N/A   Clear